Lexington Weather

Lexington, Massachusetts, USA

56°F
9/29/2023 4:33pm 
  • Lexington Conditions: Rain, Mist, Overcast
  • Temperature: 56.1°F / 13.4°CColder 2.4°F than last hour.
  • Dew Point: 55.0°FDecreased 2.4°Fsince last hour.
  • Relative Humidity: 96
  • Wind: Calm, 10-min avg: Calm, gust: None
  • Barometer: 30.21 in Steady
  • Visibility: 1½ miles
  • Rain Today: 0.49 in
  •   

Regional Weather Roundup
for Boston, MA

        
000
ASUS41 KBOX 290910
RWRBOX

REGIONAL WEATHER ROUNDUP
NATIONAL WEATHER SERVICE BOSTON/NORTON MA
500 AM EDT FRI SEP 29 2023

NOTE:  "FAIR" INDICATES FEW OR NO CLOUDS BELOW 12,000 FEET WITH NO 
SIGNIFICANT WEATHER AND/OR OBSTRUCTIONS TO VISIBILITY.

MAZALL-291000-
EASTERN MASSACHUSETTS
  
CITY           SKY/WX    TMP DP  RH WIND       PRES   REMARKS
BOSTON         CLOUDY    56  52  86 N8        30.27S                  
BEVERLY        MOCLDY    50  48  93 CALM      30.27S                  
LAWRENCE       CLOUDY    50  50 100 CALM      30.30S                  
BEDFORD        CLOUDY    50  50 100 CALM      30.27S                  
NORWOOD        CLOUDY    53  49  86 CALM      30.28S                  
MARSHFIELD     CLOUDY    59  54  82 E8        30.26S                  
PLYMOUTH       CLOUDY    58  55  90 E6        30.25F                  
TAUNTON        CLOUDY    53  51  93 CALM      30.26S                  
NEW BEDFORD    CLOUDY    57  55  93 NE7       30.23F                  
$$

MAZALL-291000-
CAPE COD AND THE ISLANDS
  
CITY           SKY/WX    TMP DP  RH WIND       PRES   REMARKS
FALMOUTH       CLOUDY    48  48 100 E9        30.24F                  
HYANNIS        CLOUDY    57  56  96 NE8       30.23F                  
CHATHAM        CLOUDY    64  56  75 NE8       30.26S                  
PROVINCETOWN   CLOUDY    57  56  96 E7        30.27S                  
NANTUCKET      MOCLDY    59  56  89 NE8       30.23F                  
MARTHAS VNYRD  LGT RAIN  61  57  87 E10       30.23S                  
$$
 
MAZALL-291000-
CENTRAL AND WESTERN MASSACHUSETTS
  
CITY           SKY/WX    TMP DP  RH WIND       PRES   REMARKS
WORCESTER      LGT RAIN  52  49  89 NE6       30.27F                  
FITCHBURG      LGT RAIN  51  48  89 CALM      30.29S                  
ORANGE         PTCLDY    48  46  93 NW5       30.29S                  
SPRINGFIELD    LGT RAIN  52  50  93 CALM      30.24F                  
WESTFIELD      CLOUDY    53  50  89 N6        30.27R                  
NORTH ADAMS    MOCLDY    57  47  69 VRB3      30.26R                  
PITTSFIELD     PTCLDY    52  45  77 NE6       30.24F                  
$$
 
RIZALL-291000-
RHODE ISLAND
  
CITY           SKY/WX    TMP DP  RH WIND       PRES   REMARKS
PROVIDENCE     LGT RAIN  56  53  90 N8        30.26S                  
NEWPORT        CLOUDY    57  53  86 NE8       30.23F                  
BLOCK ISLAND   LGT RAIN  59  58  96 NE12G17   30.22F                  
SMITHFIELD     CLOUDY    53  51  93 NE6       30.27S                  
WESTERLY       HVY RAIN  56  54  93 NE8       30.21F FOG              
$$
 
CTZALL-291000-
CONNECTICUT
  
CITY           SKY/WX    TMP DP  RH WIND       PRES   REMARKS
BRADLEY INTL   LGT RAIN  54  51  90 N6        30.26S                  
HARTFORD       HVY RAIN  55  53  93 N8        30.25S FOG              
BRIDGEPORT     RAIN      58  56  93 NE12      30.19F                  
DANBURY        LGT RAIN  56  53  90 E8        30.21F                  
GROTON         RAIN      59  57  93 NE13      30.21F                  
NEW HAVEN      LGT RAIN  58  56  93 N12       30.20F FOG              
CHESTER        LGT RAIN  55  55 100 N7        30.22S                  
MERIDEN        NOT AVBL                                               
WILLIMANTIC    CLOUDY    53  50  89 N6        30.25S                  
OXFORD         HVY RAIN  54  52  94 E12G18    30.22F FOG              
$$

MEZ002-015-021-024-NHZ003-005-008-011-012-014-VTZ005-008-291000-
NORTHERN NEW ENGLAND
  
CITY           SKY/WX    TMP DP  RH WIND       PRES   REMARKS
PORTLAND ME    PTCLDY    45  45 100 W3        30.29F FOG              
BANGOR ME      CLOUDY    45  43  93 CALM      30.29F                  
CONCORD NH     FOG       46  46 100 CALM      30.29F VSB 1/2          
MANCHESTER NH  CLOUDY    50  47  89 N3        30.28R                  
NASHUA NH      MOCLDY    48  48 100 NW3       30.29S                  
PORTSMOUTH NH  LGT RAIN  49  47  92 CALM      30.27F                  
JAFFREY NH     PTCLDY    48  45  89 CALM      30.28F                  
KEENE NH       PTCLDY    46  46 100 SW3       30.29S                  
BURLINGTON VT  PTCLDY    52  48  86 CALM      30.25S                  
MT. WASHINGTON MOCLDY    48  18  29 S8          N/A  HAZE             
$$

NYZ052-076-291000-
EASTERN NEW YORK
  
CITY           SKY/WX    TMP DP  RH WIND       PRES   REMARKS
ALBANY         CLOUDY    59  51  75 SE3       30.25R                  
NEW YORK CITY  LGT RAIN  61  58  90 NE18      30.15F                  
$$
 
ANZALL-291000-
MARINE OBSERVATIONS
  
STATION/POSITION TIME  TEMP    WIND        PRES    VSBY  WAVE
                       AIR SEA DIR/SP/G                  HT/PER
                 (UTC) (F)     (DEG/KT/KT) (MB)    (MI)  (FT/S)
BOSTON BUOY      0850   61 63   60/ 10/ 12 1024.8F         2/ 9
BUZZARDS BAY     0800   60      60/ 14/ 15 1024.0F
NANTUCKET SOUND  0850   62 63   60/ 14/ 16 1023.5F         1/ 3
MASS BAY-STELLWA 0704   61 63  100/  6/  8 1026.2F  1 7/8  3/ 8
ISLE OF SHOALS   0800   57      20/  6/  7 1024.8F
S OF BLOCK IS    0856      61                N/A           6/10
$$

......................KEY.........................
  SKY/WX - SKY CONDITION/PRESENT WEATHER
  TMP    - TEMPERATURE IN FAHRENHEIT
  DWPT   - DEWPOINT IN FAHRENHEIT
  RH     - RELATIVE HUMIDITY IN PERCENT
  WIND   - DIRECTION AND SPEED IN MPH
  PRES   - MEAN SEA LEVEL PRESSURE IN INCHES OF HG
  WCI    - WIND CHILL INDEX
  VSB    - VISIBILITY IN MILES
  HX     - HEAT INDEX
  TC     - TEMPERATURE IN CELSIUS
  VRB    - VARIABLE WIND DIRECTION
  N/A    - NOT AVAILABLE
  
      

Other recent Regional Weather Roundups

Fri Sep 29, 4:10pm EDT

Fri Sep 29, 3:10pm EDT

Fri Sep 29, 2:10pm EDT

Fri Sep 29, 1:10pm EDT

Fri Sep 29, 12:10pm EDT

Fri Sep 29, 11:10am EDT

Fri Sep 29, 10:10am EDT

Fri Sep 29, 9:10am EDT

Fri Sep 29, 8:10am EDT

Fri Sep 29, 7:10am EDT

Fri Sep 29, 6:10am EDT

Fri Sep 29, 4:10am EDT

Fri Sep 29, 3:10am EDT

Fri Sep 29, 2:10am EDT

Fri Sep 29, 1:10am EDT

Fri Sep 29, 12:10am EDT

Thu Sep 28, 11:10pm EDT

Thu Sep 28, 10:10pm EDT

Thu Sep 28, 9:10pm EDT

Thu Sep 28, 8:10pm EDT

Thu Sep 28, 7:10pm EDT

Thu Sep 28, 6:10pm EDT

Thu Sep 28, 5:10pm EDT

Thu Sep 28, 4:10pm EDT

Thu Sep 28, 3:10pm EDT

Thu Sep 28, 2:10pm EDT

Thu Sep 28, 1:10pm EDT

Thu Sep 28, 12:10pm EDT

Thu Sep 28, 11:10am EDT

Thu Sep 28, 10:10am EDT

Thu Sep 28, 9:10am EDT

Thu Sep 28, 8:10am EDT

Thu Sep 28, 7:10am EDT

Thu Sep 28, 6:10am EDT

Thu Sep 28, 5:10am EDT

Thu Sep 28, 4:10am EDT

Thu Sep 28, 3:10am EDT

Thu Sep 28, 2:10am EDT

Thu Sep 28, 1:10am EDT

Thu Sep 28, 12:10am EDT

Wed Sep 27, 11:10pm EDT

Wed Sep 27, 10:10pm EDT

Wed Sep 27, 9:10pm EDT

Wed Sep 27, 8:10pm EDT

Wed Sep 27, 7:10pm EDT

Wed Sep 27, 6:10pm EDT

Wed Sep 27, 5:10pm EDT

Wed Sep 27, 4:10pm EDT

Wed Sep 27, 3:10pm EDT

Wed Sep 27, 2:10pm EDT

Wed Sep 27, 1:10pm EDT

Wed Sep 27, 12:10pm EDT

Wed Sep 27, 11:10am EDT

Wed Sep 27, 10:10am EDT

Wed Sep 27, 9:10am EDT

Wed Sep 27, 8:10am EDT

Wed Sep 27, 7:10am EDT

Wed Sep 27, 6:10am EDT

Wed Sep 27, 5:10am EDT

Wed Sep 27, 4:10am EDT

Wed Sep 27, 3:10am EDT

Wed Sep 27, 2:10am EDT

Wed Sep 27, 1:10am EDT

Wed Sep 27, 12:10am EDT

Tue Sep 26, 11:10pm EDT

Tue Sep 26, 10:10pm EDT

Tue Sep 26, 9:10pm EDT

Tue Sep 26, 8:10pm EDT

Tue Sep 26, 7:10pm EDT

Tue Sep 26, 6:10pm EDT

Tue Sep 26, 5:10pm EDT

Tue Sep 26, 4:10pm EDT

Tue Sep 26, 3:10pm EDT

Tue Sep 26, 2:10pm EDT

Tue Sep 26, 1:10pm EDT

Tue Sep 26, 12:10pm EDT

Tue Sep 26, 11:10am EDT

Tue Sep 26, 10:10am EDT

Tue Sep 26, 9:10am EDT

Tue Sep 26, 8:10am EDT

Tue Sep 26, 7:10am EDT

Tue Sep 26, 6:10am EDT

Tue Sep 26, 5:10am EDT

Tue Sep 26, 4:10am EDT

Tue Sep 26, 3:10am EDT

Tue Sep 26, 2:10am EDT

Tue Sep 26, 1:10am EDT

Tue Sep 26, 12:10am EDT

Mon Sep 25, 11:10pm EDT

Mon Sep 25, 10:10pm EDT

Mon Sep 25, 9:10pm EDT

Mon Sep 25, 8:10pm EDT

Mon Sep 25, 7:10pm EDT

Mon Sep 25, 6:10pm EDT

Mon Sep 25, 5:10pm EDT

Mon Sep 25, 4:10pm EDT

Mon Sep 25, 2:10pm EDT

Mon Sep 25, 1:10pm EDT

Mon Sep 25, 12:10pm EDT

Mon Sep 25, 11:10am EDT

Mon Sep 25, 10:10am EDT

Mon Sep 25, 9:10am EDT

Mon Sep 25, 8:10am EDT

Mon Sep 25, 7:10am EDT

Mon Sep 25, 6:10am EDT

Mon Sep 25, 5:10am EDT

Mon Sep 25, 4:10am EDT

Mon Sep 25, 3:10am EDT

Mon Sep 25, 2:10am EDT

Mon Sep 25, 1:10am EDT

Mon Sep 25, 12:10am EDT

Sun Sep 24, 11:10pm EDT

Sun Sep 24, 10:10pm EDT

Sun Sep 24, 9:10pm EDT

Sun Sep 24, 8:10pm EDT

Sun Sep 24, 7:10pm EDT

Sun Sep 24, 6:10pm EDT

Sun Sep 24, 5:10pm EDT

Sun Sep 24, 4:10pm EDT

Sun Sep 24, 3:10pm EDT

Sun Sep 24, 2:10pm EDT

Sun Sep 24, 1:10pm EDT

Sun Sep 24, 12:10pm EDT

Sun Sep 24, 11:10am EDT

Sun Sep 24, 10:10am EDT

Sun Sep 24, 9:10am EDT

Sun Sep 24, 8:10am EDT

Sun Sep 24, 7:10am EDT

Sun Sep 24, 6:10am EDT

Sun Sep 24, 5:10am EDT

Sun Sep 24, 4:10am EDT

Sun Sep 24, 3:10am EDT

Sun Sep 24, 2:10am EDT

Sun Sep 24, 1:10am EDT

Sun Sep 24, 12:10am EDT

Sat Sep 23, 11:10pm EDT

Sat Sep 23, 10:10pm EDT

Sat Sep 23, 9:10pm EDT

Sat Sep 23, 8:10pm EDT

Sat Sep 23, 7:10pm EDT

Sat Sep 23, 6:10pm EDT

Sat Sep 23, 5:10pm EDT

Sat Sep 23, 4:10pm EDT

Sat Sep 23, 3:10pm EDT

Sat Sep 23, 2:10pm EDT

Sat Sep 23, 1:10pm EDT

Sat Sep 23, 12:10pm EDT

Sat Sep 23, 11:10am EDT

Sat Sep 23, 10:10am EDT

Sat Sep 23, 9:10am EDT

Sat Sep 23, 8:10am EDT

Sat Sep 23, 7:10am EDT

Sat Sep 23, 6:10am EDT

Sat Sep 23, 5:10am EDT

Sat Sep 23, 4:10am EDT

Sat Sep 23, 3:10am EDT

Sat Sep 23, 2:10am EDT

Sat Sep 23, 1:10am EDT

Sat Sep 23, 12:10am EDT

Fri Sep 22, 11:10pm EDT

Fri Sep 22, 10:10pm EDT

Fri Sep 22, 9:10pm EDT

Fri Sep 22, 8:10pm EDT

Fri Sep 22, 7:10pm EDT

Fri Sep 22, 6:10pm EDT

Fri Sep 22, 5:10pm EDT